{"data":{"norad_id":67660,"epoch":"2026-09-18T01:21:57.690144Z","epoch_age_seconds":279908,"freshness":"STALE","line1":"1 67660U 26022N   26261.05691771  .00016613  00000+0  51586-3 0  9994","line2":"2 67660  97.2847 292.6681 0001692  88.7755 271.3681 15.33439191 35056","mean_motion":15.33439191,"eccentricity":0.0001692,"inclination_deg":97.2847,"raan_deg":292.6681,"arg_perigee_deg":88.7755,"mean_anomaly_deg":271.3681,"bstar":0.00051586,"rev_number":3505,"period_min":93.90656039389,"perigee_km":464.40250441981,"apogee_km":466.71841163961,"semimajor_km":6843.6974580297,"source":"CELESTRAK","updated_at":"2026-09-20T09:00:43.621753Z"}}